Lid_Strength_Index
3 4 4 4 4 4 4 4 4 4 5 5 5 5 5 5 5 4 4 4 4 4 4 4 4 3 4 5 6 0 -2 -1 1 3 3 3 4 4 6 5 5 6 6 5 4 4 4
4 4 4 4 4 4 4 4 4 4 4 4 5 4 5 5 5 4 4 5 5 5 4 3 3 4 4 7 2 2 2 1 2 2 3 2 3 3 5 5 5 5 5 5 4 4 4
4 4 4 4 4 4 4 4 4 4 4 4 4 4 4 4 5 5 5 5 5 4 3 2 2 4 5 5 2 3 2 1 1 1 2 1 1 3 4 5 3 4 6 5 5 5 5
4 4 4 4 4 4 4 4 5 4 4 4 4 4 4 4 4 5 5 5 5 3 3 3 3 4 5 1 1 3 2 1 0 0 1 1 1 2 4 3 5 6 6 9 6 5 5
4 4 4 4 4 4 4 4 5 4 4 4 4 4 4 4 5 5 6 5 4 3 4 3 3 4 5 3 4 2 3 3 1 1 1 1 2 4 4 6 7 6 9 9 7 4 5
4 4 4 4 5 4 4 4 5 4 4 4 5 5 5 5 5 5 6 5 3 3 2 2 2 6 4 5 4 4 2 2 2 2 3 3 4 6 6 7 11 9 8 7 8 6 5
5 5 5 5 5 5 5 5 5 5 4 4 5 5 5 5 5 6 5 5 6 4 3 5 5 5 4 3 4 5 2 2 2 4 7 5 7 9 7 6 6 6 7 7 6 5 6
5 5 5 5 5 5 5 5 5 5 5 4 5 5 5 5 6 6 5 7 8 8 11 7 7 7 5 3 5 6 3 4 5 7 6 6 9 6 5 5 6 7 7 7 6 5 6
5 5 5 5 5 5 5 5 5 5 5 5 5 5 6 6 6 6 6 7 5 6 10 9 7 7 6 4 5 5 5 5 5 7 6 7 6 5 6 6 7 7 7 7 7 6 6
5 5 4 4 4 5 5 5 5 5 5 5 5 5 6 7 7 6 7 6 5 5 12 10 8 7 6 6 7 3 5 5 5 7 6 6 5 6 6 7 6 8 6 6 7 7 10
5 4 5 5 5 5 5 5 4 4 4 4 4 5 6 7 6 7 7 6 5 6 15 7 8 4 5 7 5 5 4 5 7 7 6 8 7 7 7 7 6 7 5 6 7 7 8
5 5 5 5 4 4 4 3 2 2 2 2 2 2 2 3 3 4 5 5 6 12 15 8 7 8 8 7 6 4 5 5 5 7 6 6 5 5 6 5 5 5 6 6 7 8 11
5 5 4 4 3 2 2 2 1 1 1 1 2 2 2 1 3 1 1 5 12 15 7 8 9 7 8 8 7 6 6 9 9 10 10 8 7 6 5 7 5 6 7 11 11 11 12
5 4 3 2 2 1 1 0 0 1 1 2 3 3 1 1 1 0 1 6 12 10 8 7 9 9 10 8 7 7 7 8 8 8 9 10 11 7 6 7 7 7 8 10 13 12 11
4 3 2 2 1 0 -0 0 1 1 2 2 3 1 2 2 1 1 4 9 9 8 8 9 9 9 8 7 7 7 7 7 7 7 10 9 10 6 6 6 6 7 9 7 9 9 10
3 2 1 1 0 0 0 0 1 1 2 3 3 3 2 1 0 1 6 9 8 6 6 7 11 8 10 9 8 8 8 6 6 6 5 7 9 7 7 6 6 6 6 9 9 12 12
2 2 1 0 -0 0 0 0 1 2 2 3 3 5 2 1 0 4 8 8 6 5 5 7 9 10 11 11 9 8 8 7 6 6 5 6 7 8 6 8 8 8 8 7 7 9 11
2 1 0 0 -0 0 0 0 1 2 3 4 4 7 2 1 5 4 7 6 6 5 5 6 6 7 11 10 10 10 9 8 7 7 8 6 7 10 8 7 6 6 7 7 10 10 9
1 1 0 -0 -0 -0 0 0 1 2 3 4 5 5 1 2 8 7 6 6 6 7 6 6 7 7 8 10 12 10 9 7 7 7 8 6 8 11 10 7 7 8 7 7 7 7 9
1 1 0 -0 -0 -0 0 0 1 1 3 4 5 8 4 4 4 6 7 7 7 5 6 5 6 6 7 9 8 10 10 8 7 7 7 7 8 10 11 9 7 9 8 7 7 9 9
1 0 0 -0 -1 -0 0 0 1 1 2 3 6 7 6 8 6 6 6 6 8 9 6 5 7 8 9 11 9 12 10 8 7 7 7 7 10 8 8 7 7 8 8 8 8 7 9
1 0 -0 -0 -0 -0 -0 0 1 1 3 4 7 8 6 7 6 7 7 7 7 7 7 7 8 7 7 10 10 13 10 10 10 8 8 7 10 9 10 7 8 9 7 8 7 8 7
1 0 0 -0 -0 -0 -0 0 1 2 4 6 4 5 6 8 7 8 7 7 7 6 5 5 6 7 7 7 5 5 6 8 9 10 10 9 9 10 12 9 9 11 8 8 7 6 7
1 0 0 0 -0 -0 0 0 1 2 3 4 5 7 9 10 8 8 7 6 7 6 7 5 5 6 5 3 3 4 5 7 9 9 9 10 10 10 11 10 15 8 6 6 7 6 6
1 0 0 0 -0 0 0 0 0 2 3 4 4 7 9 11 9 8 7 7 6 6 6 6 5 3 3 4 7 9 8 9 9 9 10 9 10 11 12 12 10 8 7 7 8 8 5
1 1 0 0 0 0 0 0 1 2 3 3 4 4 7 11 10 7 7 6 8 7 7 5 3 2 3 6 8 12 12 10 10 11 9 9 9 11 11 13 14 8 6 6 6 10 5
1 1 1 0 0 1 1 1 2 2 2 3 4 4 6 10 8 7 8 8 5 6 8 6 5 5 4 7 10 11 11 8 11 10 11 11 11 13 13 13 10 6 5 5 10 11 6
1 1 1 1 1 1 1 2 2 2 2 3 3 3 6 9 7 6 6 7 7 6 9 6 6 5 6 9 9 9 9 8 9 8 9 10 12 13 12 13 13 6 7 8 6 5 5
1 1 1 1 1 1 2 2 2 2 2 2 4 4 4 8 8 5 5 4 4 4 6 5 6 6 5 7 7 8 9 8 9 11 6 10 8 10 10 11 7 6 6 6 5 6 5